Walls, MS (38686)

6:49 PM CST on March 03, 2015 (GMT -0600)
Skyler Estates | Change Station
CLOSE
Current Station
Personal Weather Station
Location: Southaven, MS
Elevation: 375 ft
Nearby Weather Stations
Active Advisory: Winter Storm Warning

Elev 375 ft 34.91 °N, 89.98 °W | Updated 7 minutes ago

Overcast
Overcast
58.2 °F
Feels Like 58.2 °F
N
6.0
Wind Variable Wind from South
Gusts 9.0 mph

Today
High -- | Low -- °F
--% Chance of Precip.
Yesterday
High -- | Low -- °F
Precip. -- in
6:27 AM 5:57 PM
Waxing Gibbous, 97% visible
Pressure 29.91 in
Visibility 10.0 miles
Clouds Mostly Cloudy 500 ft
Mostly Cloudy 2100 ft
Overcast 3100 ft
Dew Point 57 °F
Humidity 97%
Rainfall 0.07 in
Snow Depth Not available.
UV 0.0 out of 12
Pollen 6.00 out of 12
Air Quality Not available.
Flu Activity Not available.
SPECI KMEM 040031Z 20008KT 10SM BKN005 BKN021 OVC031 15/14 A2991 RMK AO2

More Conditions Fewer Conditions

Pressure 29.91 in
Visibility 10.0 miles
Clouds Mostly Cloudy 500 ft
Mostly Cloudy 2100 ft
Overcast 3100 ft
Dew Point 57 °F
Humidity 97%
Rainfall 0.07 in
Snow Depth Not available.
UV 0.0 out of 12
Pollen 6.00 out of 12
Air Quality Not available.
Flu Activity Not available.
SPECI KMEM 040031Z 20008KT 10SM BKN005 BKN021 OVC031 15/14 A2991 RMK AO2

More Conditions Fewer Conditions

Nowcast | as of 6:07 PM CST on March 3, 2015

Areas of fog will persist across the midsouth this evening. Visibilities will average several miles...but may suddenly decrease to less than a quarter mile in localized areas. Drivers should be prepared for rapid and abrupt changes in visibility.

×

10-Day Weather Forecast

Almanac

Astronomy

Mar. 03, 2015 Rise Set
Actual Time
Civil Twilight
Nautical Twilight
Astronomical Twilight
Moon
Length of Visible Light
Length of Day
Tomorrow will be .
, % of the Moon is Illuminated

Today's Extremes

State Highs State Lows

Community

WunderPhotos

Upload Photos

1,802,340 photos uploaded!

WunderBlogs® & News

Nearby

Air Quality

  Air Quality AQ Index Pollutant
Not available.

Snow Depth

Station Depth Elevation

Earthquake Activity

City Distance Mag. Time & Date
Minimum magnitude displayed is 2.5.

Coastal Water Temperatures

Place Temperature

Nearby Weather Stations

Winter Storm Warning
Statement as of 3:01 PM CST on March 03, 2015

... Winter Storm Warning now in effect from noon Wednesday to noon
CST Thursday...

* snow/sleet/ice accumulations... snow accumulations of 1 to 4
inches... sleet accumulations of 0.5 to 2.5 inches... and ice
accumulations of a quarter of an inch are expected.

* Timing... 12 PM CST Wednesday to midday Thursday.

* Impacts... travel will become hazardous. Sporadic power outages
will be possible.

Precautionary/preparedness actions...

A Winter Storm Warning means significant amounts of snow...
sleet... and ice are expected or occurring. Strong winds are also
possible. This will make travel very hazardous or impossible.